| time (UTC) | temp C | wind direction | speed KPH | gust KPH | rain 1hr cm | rain 24hr cm | rain mn cm | humidity % | barometer mb |
| 20260505035433 | 16 | 200 | 14.5 | 17.7 | 0.00 | 0.00 | 0.00 | 58 | 1006.1 |
| 20260505034930 | 16 | 187 | 8.0 | 11.3 | 0.00 | 0.00 | 0.00 | 58 | 1006.1 |
| 20260505034426 | 16 | 189 | 8.0 | 9.7 | 0.00 | 0.00 | 0.00 | 58 | 1006.2 |
| 20260505033924 | 16 | 201 | 4.8 | 4.8 | 0.00 | 0.00 | 0.00 | 57 | 1006.2 |
| 20260505033420 | 16 | 209 | 8.0 | 9.7 | 0.00 | 0.00 | 0.00 | 58 | 1006.2 |
| 20260505032919 | 16 | 179 | 6.4 | 11.3 | 0.00 | 0.00 | 0.00 | 57 | 1006.1 |
| 20260505032416 | 16 | 216 | 4.8 | 4.8 | 0.00 | 0.00 | 0.00 | 57 | 1006.3 |
| 20260505031912 | 16 | 186 | 11.3 | 14.5 | 0.00 | 0.00 | 0.00 | 56 | 1006.3 |
| 20260505031409 | 16 | 185 | 6.4 | 9.7 | 0.00 | 0.00 | 0.00 | 56 | 1006.0 |
| 20260505030906 | 16 | 203 | 8.0 | 9.7 | 0.00 | 0.00 | 0.00 | 57 | 1006.1 |
| 20260505030402 | 16 | 221 | 3.2 | 4.8 | 0.00 | 0.00 | 0.00 | 57 | 1005.9 |
| 20260505025857 | 16 | 215 | 11.3 | 12.9 | 0.00 | 0.00 | 0.00 | 56 | 1006.3 |
| 20260505025355 | 16 | 235 | 4.8 | 8.0 | 0.00 | 0.00 | 0.00 | 56 | 1006.2 |
| 20260505024854 | 16 | 197 | 6.4 | 8.0 | 0.00 | 0.00 | 0.00 | 56 | 1006.3 |
| 20260505024351 | 16 | 209 | 9.7 | 11.3 | 0.00 | 0.00 | 0.00 | 56 | 1006.1 |
| 20260505023848 | 16 | 210 | 8.0 | 9.7 | 0.00 | 0.00 | 0.00 | 56 | 1006.1 |
| 20260505023345 | 16 | 177 | 8.0 | 9.7 | 0.00 | 0.00 | 0.00 | 55 | 1006.5 |
| 20260505022842 | 17 | 201 | 9.7 | 11.3 | 0.00 | 0.00 | 0.00 | 54 | 1006.2 |
| 20260505022339 | 17 | 143 | 1.6 | 3.2 | 0.00 | 0.00 | 0.00 | 55 | 1006.4 |
| 20260505021836 | 16 | 194 | 11.3 | 14.5 | 0.00 | 0.00 | 0.00 | 55 | 1006.4 |
| 20260505021333 | 16 | 219 | 8.0 | 11.3 | 0.00 | 0.00 | 0.00 | 54 | 1006.2 |
| 20260505020828 | 17 | 180 | 8.0 | 9.7 | 0.00 | 0.00 | 0.00 | 54 | 1006.4 |
| 20260505020324 | 17 | 203 | 4.8 | 8.0 | 0.00 | 0.00 | 0.00 | 54 | 1006.2 |
| 20260505015821 | 17 | 232 | 6.4 | 9.7 | 0.00 | 0.00 | 0.00 | 54 | 1006.2 |
| 20260505015318 | 17 | 224 | 6.4 | 8.0 | 0.00 | 0.00 | 0.00 | 53 | 1006.4 |
| 20260505014816 | 17 | 212 | 8.0 | 11.3 | 0.00 | 0.00 | 0.00 | 53 | 1006.3 |
| 20260505014312 | 17 | 208 | 4.8 | 4.8 | 0.00 | 0.00 | 0.00 | 53 | 1006.1 |
| 20260505013808 | 17 | 201 | 6.4 | 9.7 | 0.00 | 0.00 | 0.00 | 53 | 1006.3 |
| 20260505013301 | 17 | 179 | 1.6 | 3.2 | 0.00 | 0.00 | 0.00 | 54 | 1006.2 |
| 20260505012759 | 17 | 200 | 9.7 | 11.3 | 0.00 | 0.00 | 0.00 | 52 | 1006.3 |
| 20260505012256 | 16 | 223 | 6.4 | 8.0 | 0.00 | 0.00 | 0.00 | 52 | 1006.2 |
| 20260505011752 | 16 | 184 | 4.8 | 8.0 | 0.00 | 0.00 | 0.00 | 53 | 1006.3 |
| 20260505011249 | 16 | 188 | 4.8 | 8.0 | 0.00 | 0.00 | 0.00 | 52 | 1006.1 |
| 20260505010744 | 16 | 198 | 3.2 | 3.2 | 0.00 | 0.00 | 0.00 | 53 | 1006.0 |
| 20260505010240 | 15 | 211 | 0.0 | 1.6 | 0.00 | 0.00 | 0.00 | 55 | 1006.3 |
| 20260505005737 | 15 | 222 | 0.0 | 0.0 | 0.00 | 0.00 | 0.00 | 57 | 1006.2 |
| 20260505005234 | 15 | 199 | 1.6 | 1.6 | 0.00 | 0.00 | 0.00 | 57 | 1006.1 |
| 20260505004732 | 15 | 195 | 1.6 | 1.6 | 0.00 | 0.00 | 0.00 | 55 | 1006.0 |
| 20260505004228 | 15 | 196 | 0.0 | 0.0 | 0.00 | 0.00 | 0.00 | 55 | 1005.9 |
| 20260505003725 | 16 | 223 | 0.0 | 0.0 | 0.00 | 0.00 | 0.00 | 53 | 1005.7 |
| 20260505003223 | 15 | 214 | 0.0 | 0.0 | 0.00 | 0.00 | 0.00 | 53 | 1006.1 |
| 20260505002719 | 15 | 200 | 0.0 | 0.0 | 0.00 | 0.00 | 0.00 | 54 | 1005.9 |
| 20260505002217 | 15 | 203 | 0.0 | 0.0 | 0.00 | 0.00 | 0.00 | 53 | 1005.9 |
| 20260505001714 | 15 | 260 | 0.0 | 0.0 | 0.00 | 0.00 | 0.00 | 55 | 1005.9 |
| 20260505001212 | 16 | 240 | 0.0 | 0.0 | 0.00 | 0.00 | 0.00 | 53 | 1006.1 |
| 20260505000708 | 16 | 209 | 1.6 | 1.6 | 0.00 | 0.00 | 0.00 | 51 | 1006.2 |
| 20260505000206 | 16 | 231 | 0.0 | 0.0 | 0.00 | 0.00 | 0.00 | 51 | 1005.8 |
| 20260504235703 | 17 | 252 | 0.0 | 0.0 | 0.00 | 0.00 | 0.00 | 52 | 1005.7 |
| 20260504235158 | 17 | 250 | 0.0 | 0.0 | 0.00 | 0.00 | 0.00 | 51 | 1005.9 |
| 20260504234656 | 17 | 244 | 0.0 | 0.0 | 0.00 | 0.00 | 0.00 | 49 | 1005.7 |
| 20260504234153 | 18 | 218 | 0.0 | 0.0 | 0.00 | 0.00 | 0.00 | 47 | 1005.6 |
| 20260504233649 | 19 | 276 | 1.6 | 1.6 | 0.00 | 0.00 | 0.00 | 42 | 1005.4 |
| 20260504233145 | 19 | 202 | 3.2 | 4.8 | 0.00 | 0.00 | 0.00 | 41 | 1005.6 |
| 20260504232643 | 18 | 230 | 0.0 | 0.0 | 0.00 | 0.00 | 0.00 | 43 | 1005.7 |
| 20260504232140 | 19 | 178 | 4.8 | 4.8 | 0.00 | 0.00 | 0.00 | 41 | 1005.6 |
| 20260504231636 | 20 | 232 | 3.2 | 3.2 | 0.00 | 0.00 | 0.00 | 39 | 1005.4 |
| 20260504231133 | 19 | 203 | 8.0 | 11.3 | 0.00 | 0.00 | 0.00 | 40 | 1005.7 |
| 20260504230629 | 20 | 197 | 4.8 | 4.8 | 0.00 | 0.00 | 0.00 | 39 | 1005.7 |
| 20260504230128 | 20 | 181 | 3.2 | 4.8 | 0.00 | 0.00 | 0.00 | 40 | 1005.4 |
| 20260504225626 | 20 | 189 | 6.4 | 8.0 | 0.00 | 0.00 | 0.00 | 39 | 1005.3 |
| 20260504225121 | 20 | 178 | 1.6 | 1.6 | 0.00 | 0.00 | 0.00 | 39 | 1005.4 |
| 20260504224618 | 20 | 179 | 3.2 | 3.2 | 0.00 | 0.00 | 0.00 | 39 | 1005.6 |
| 20260504224114 | 20 | 234 | 1.6 | 1.6 | 0.00 | 0.00 | 0.00 | 41 | 1005.6 |
| 20260504223612 | 20 | 197 | 6.4 | 8.0 | 0.00 | 0.00 | 0.00 | 37 | 1005.7 |
| 20260504223107 | 20 | 186 | 6.4 | 9.7 | 0.00 | 0.00 | 0.00 | 37 | 1005.6 |
| 20260504222605 | 20 | 344 | 1.6 | 1.6 | 0.00 | 0.00 | 0.00 | 40 | 1005.8 |
| 20260504222102 | 20 | 164 | 4.8 | 9.7 | 0.00 | 0.00 | 0.00 | 36 | 1005.7 |
| 20260504221559 | 20 | 116 | 3.2 | 4.8 | 0.00 | 0.00 | 0.00 | 38 | 1005.7 |
| 20260504221055 | 20 | 179 | 4.8 | 8.0 | 0.00 | 0.00 | 0.00 | 38 | 1005.9 |
| 20260504220552 | 20 | 200 | 6.4 | 8.0 | 0.00 | 0.00 | 0.00 | 41 | 1005.9 |
| 20260504220049 | 20 | 281 | 0.0 | 0.0 | 0.00 | 0.00 | 0.00 | 40 | 1005.6 |
| 20260504215546 | 20 | 191 | 4.8 | 4.8 | 0.00 | 0.00 | 0.00 | 39 | 1005.7 |
| 20260504215043 | 20 | 192 | 3.2 | 3.2 | 0.00 | 0.00 | 0.00 | 38 | 1006.0 |
| 20260504214538 | 21 | 183 | 6.4 | 8.0 | 0.00 | 0.00 | 0.00 | 38 | 1005.8 |
| 20260504214036 | 20 | 248 | 4.8 | 4.8 | 0.00 | 0.00 | 0.00 | 38 | 1005.8 |
| 20260504213532 | 21 | 211 | 3.2 | 3.2 | 0.00 | 0.00 | 0.00 | 41 | 1005.8 |
| 20260504213029 | 21 | 260 | 3.2 | 3.2 | 0.00 | 0.00 | 0.00 | 39 | 1006.0 |
| 20260504212525 | 21 | 268 | 4.8 | 8.0 | 0.00 | 0.00 | 0.00 | 37 | 1005.8 |
| 20260504212022 | 21 | 104 | 8.0 | 9.7 | 0.00 | 0.00 | 0.00 | 38 | 1005.7 |
| 20260504211519 | 21 | 274 | 1.6 | 1.6 | 0.00 | 0.00 | 0.00 | 37 | 1005.9 |
| 20260504211017 | 21 | 118 | 4.8 | 8.0 | 0.00 | 0.00 | 0.00 | 38 | 1005.8 |
| 20260504210513 | 21 | 196 | 6.4 | 9.7 | 0.00 | 0.00 | 0.00 | 38 | 1006.1 |
| 20260504210010 | 21 | 116 | 4.8 | 4.8 | 0.00 | 0.00 | 0.00 | 39 | 1006.1 |
| 20260504205508 | 21 | 48 | 14.5 | 20.9 | 0.00 | 0.00 | 0.00 | 38 | 1006.0 |
| 20260504205006 | 21 | 181 | 9.7 | 12.9 | 0.00 | 0.00 | 0.00 | 38 | 1006.2 |
| 20260504204503 | 21 | 193 | 3.2 | 3.2 | 0.00 | 0.00 | 0.00 | 39 | 1006.1 |
| 20260504204002 | 21 | 174 | 9.7 | 16.1 | 0.00 | 0.00 | 0.00 | 40 | 1006.0 |
| 20260504203500 | 21 | 148 | 3.2 | 8.0 | 0.00 | 0.00 | 0.00 | 40 | 1005.9 |
| 20260504202956 | 21 | 145 | 8.0 | 9.7 | 0.00 | 0.00 | 0.00 | 39 | 1006.2 |
| 20260504202452 | 21 | 168 | 4.8 | 8.0 | 0.00 | 0.00 | 0.00 | 40 | 1006.1 |
| 20260504201949 | 21 | 161 | 6.4 | 9.7 | 0.00 | 0.00 | 0.00 | 42 | 1006.1 |
| 20260504201446 | 21 | 124 | 4.8 | 4.8 | 0.00 | 0.00 | 0.00 | 40 | 1006.5 |
| 20260504200944 | 21 | 197 | 6.4 | 9.7 | 0.00 | 0.00 | 0.00 | 41 | 1006.6 |
| 20260504200440 | 20 | 152 | 8.0 | 9.7 | 0.00 | 0.00 | 0.00 | 45 | 1006.6 |
| 20260504195937 | 21 | 234 | 3.2 | 3.2 | 0.00 | 0.00 | 0.00 | 41 | 1006.5 |
| 20260504195433 | 21 | 156 | 4.8 | 8.0 | 0.00 | 0.00 | 0.00 | 41 | 1006.5 |
| 20260504194930 | 20 | 222 | 4.8 | 4.8 | 0.00 | 0.00 | 0.00 | 43 | 1006.4 |
| 20260504194426 | 20 | 185 | 11.3 | 12.9 | 0.00 | 0.00 | 0.00 | 42 | 1006.6 |
| 20260504193922 | 21 | 74 | 4.8 | 8.0 | 0.00 | 0.00 | 0.00 | 42 | 1006.8 |
| 20260504193420 | 21 | 262 | 3.2 | 4.8 | 0.00 | 0.00 | 0.00 | 42 | 1007.0 |
| 20260504192919 | 21 | 172 | 14.5 | 22.5 | 0.00 | 0.00 | 0.00 | 42 | 1006.7 |
| 20260504192415 | 20 | 110 | 0.0 | 1.6 | 0.00 | 0.00 | 0.00 | 47 | 1006.9 |
| 20260504191914 | 20 | 207 | 4.8 | 11.3 | 0.00 | 0.00 | 0.00 | 43 | 1007.0 |
| 20260504191411 | 20 | 227 | 6.4 | 11.3 | 0.00 | 0.00 | 0.00 | 44 | 1006.8 |
| 20260504190906 | 20 | 99 | 8.0 | 11.3 | 0.00 | 0.00 | 0.00 | 46 | 1007.0 |
| 20260504190402 | 20 | 8 | 4.8 | 11.3 | 0.00 | 0.00 | 0.00 | 42 | 1007.2 |
| 20260504185859 | 20 | 20 | 12.9 | 17.7 | 0.00 | 0.00 | 0.00 | 43 | 1007.2 |
| 20260504185356 | 20 | 127 | 9.7 | 12.9 | 0.00 | 0.00 | 0.00 | 43 | 1007.1 |
| 20260504184852 | 21 | 58 | 6.4 | 11.3 | 0.00 | 0.00 | 0.00 | 47 | 1007.6 |
| 20260504184348 | 20 | 190 | 11.3 | 14.5 | 0.00 | 0.00 | 0.00 | 44 | 1007.3 |
| 20260504183844 | 20 | 79 | 4.8 | 8.0 | 0.00 | 0.00 | 0.00 | 48 | 1007.1 |
| 20260504183342 | 20 | 165 | 6.4 | 9.7 | 0.00 | 0.00 | 0.00 | 46 | 1007.5 |
| 20260504182839 | 20 | 180 | 12.9 | 17.7 | 0.00 | 0.00 | 0.00 | 45 | 1007.4 |
| 20260504182337 | 20 | 113 | 4.8 | 8.0 | 0.00 | 0.00 | 0.00 | 46 | 1007.3 |
| 20260504181833 | 20 | 311 | 1.6 | 3.2 | 0.00 | 0.00 | 0.00 | 47 | 1007.4 |
| 20260504181331 | 20 | 263 | 4.8 | 4.8 | 0.00 | 0.00 | 0.00 | 46 | 1007.3 |
| 20260504180830 | 20 | 208 | 0.0 | 1.6 | 0.00 | 0.00 | 0.00 | 46 | 1007.4 |
| 20260504180327 | 20 | 119 | 6.4 | 9.7 | 0.00 | 0.00 | 0.00 | 47 | 1007.5 |
| 20260504175826 | 20 | 138 | 11.3 | 17.7 | 0.00 | 0.00 | 0.00 | 46 | 1007.4 |
| 20260504175322 | 19 | 71 | 11.3 | 12.9 | 0.00 | 0.00 | 0.00 | 47 | 1007.5 |
| 20260504174820 | 20 | 137 | 9.7 | 12.9 | 0.00 | 0.00 | 0.00 | 49 | 1007.7 |
| 20260504174317 | 20 | 70 | 11.3 | 16.1 | 0.00 | 0.00 | 0.00 | 47 | 1007.7 |
| 20260504173814 | 19 | 26 | 8.0 | 14.5 | 0.00 | 0.00 | 0.00 | 48 | 1007.7 |
| 20260504173311 | 19 | 113 | 12.9 | 20.9 | 0.00 | 0.00 | 0.00 | 48 | 1007.7 |
| 20260504172808 | 19 | 166 | 9.7 | 16.1 | 0.00 | 0.00 | 0.00 | 49 | 1007.7 |
| 20260504172304 | 19 | 192 | 14.5 | 20.9 | 0.00 | 0.00 | 0.00 | 47 | 1007.6 |
| 20260504171800 | 18 | 145 | 0.0 | 1.6 | 0.00 | 0.00 | 0.00 | 51 | 1007.6 |
| 20260504171258 | 18 | 177 | 16.1 | 22.5 | 0.00 | 0.00 | 0.00 | 49 | 1007.5 |
| 20260504170755 | 19 | 120 | 8.0 | 9.7 | 0.00 | 0.00 | 0.00 | 49 | 1007.8 |
| 20260504170252 | 18 | 269 | 8.0 | 9.7 | 0.00 | 0.00 | 0.00 | 52 | 1007.7 |
| 20260504160210 | 17 | 203 | 6.4 | 9.7 | 0.00 | 0.00 | 0.00 | 53 | 1008.0 |
| 20260504151138 | 16 | 170 | 8.0 | 9.7 | 0.00 | 0.00 | 0.00 | 53 | 1008.8 |
| 20260504150635 | 16 | 197 | 16.1 | 20.9 | 0.00 | 0.00 | 0.00 | 53 | 1008.7 |
| 20260504150132 | 16 | 166 | 9.7 | 12.9 | 0.00 | 0.00 | 0.00 | 53 | 1008.7 |
| 20260504141101 | 14 | 203 | 6.4 | 9.7 | 0.00 | 0.00 | 0.00 | 55 | 1009.2 |
| 20260504140557 | 14 | 185 | 12.9 | 14.5 | 0.00 | 0.00 | 0.00 | 54 | 1009.1 |
| 20260504130521 | 12 | 193 | 4.8 | 9.7 | 0.00 | 0.00 | 0.00 | 59 | 1009.7 |
| 20260504110409 | 8 | 184 | 4.8 | 8.0 | 0.00 | 0.00 | 0.00 | 66 | 1009.8 |
| 20260504100326 | 7 | 213 | 8.0 | 8.0 | 0.00 | 0.00 | 0.00 | 68 | 1010.2 |
| 20260504081720 | 6 | 217 | 1.6 | 1.6 | 0.00 | 0.00 | 0.00 | 71 | 1010.2 |
| 20260504081216 | 7 | 212 | 0.0 | 1.6 | 0.00 | 0.00 | 0.00 | 69 | 1010.3 |
| 20260504080712 | 7 | 220 | 1.6 | 1.6 | 0.00 | 0.00 | 0.00 | 69 | 1010.3 |
| 20260504080209 | 7 | 237 | 1.6 | 1.6 | 0.00 | 0.00 | 0.00 | 69 | 1010.2 |
| 20260504070137 | 7 | 218 | 1.6 | 1.6 | 0.00 | 0.00 | 0.00 | 70 | 1010.5 |
| 20260504050525 | 8 | 198 | 1.6 | 1.6 | 0.00 | 0.00 | 0.00 | 65 | 1010.6 |
| 20260504050022 | 9 | 206 | 1.6 | 3.2 | 0.00 | 0.00 | 0.00 | 65 | 1010.6 |
| 20260504045519 | 9 | 271 | 3.2 | 3.2 | 0.00 | 0.00 | 0.00 | 62 | 1010.6 |
| 20260504045014 | 9 | 190 | 6.4 | 8.0 | 0.00 | 0.00 | 0.00 | 62 | 1010.7 |
| 20260504044512 | 9 | 219 | 1.6 | 3.2 | 0.00 | 0.00 | 0.00 | 63 | 1010.5 |
| 20260504044009 | 10 | 175 | 4.8 | 4.8 | 0.00 | 0.00 | 0.00 | 61 | 1010.4 |
| 20260504043506 | 10 | 251 | 0.0 | 0.0 | 0.00 | 0.00 | 0.00 | 61 | 1010.7 |
| 20260504043003 | 10 | 259 | 1.6 | 3.2 | 0.00 | 0.00 | 0.00 | 62 | 1010.6 |
| 20260504042500 | 10 | 207 | 1.6 | 3.2 | 0.00 | 0.00 | 0.00 | 63 | 1010.7 |
| 20260504041957 | 10 | 172 | 3.2 | 3.2 | 0.00 | 0.00 | 0.00 | 59 | 1010.6 |
| 20260504041453 | 10 | 202 | 1.6 | 3.2 | 0.00 | 0.00 | 0.00 | 60 | 1010.6 |
| 20260504040948 | 10 | 223 | 0.0 | 0.0 | 0.00 | 0.00 | 0.00 | 60 | 1010.7 |
| 20260504040447 | 10 | 275 | 4.8 | 4.8 | 0.00 | 0.00 | 0.00 | 59 | 1010.6 |
| 20260504035942 | 10 | 187 | 1.6 | 3.2 | 0.00 | 0.00 | 0.00 | 59 | 1010.6 |